Location: Newark
(51.0500°N, 12.4500°E)
Time: 12:43:07
(UTC+00:00)

Vanguard 1 - Pass Details

Date: 22 February 2020
Orbit: 649 x 3833 km, 34.2° (Epoch: 05 April)

Event Time Altitude Azimuth Distance (km) Brightness Sun altitude
Rises 13:08:15 0° 270° (W) 6,178 14.5 24.6°
Reaches altitude 10° 13:15:19 10° 250° (WSW) 4,384 14.3 24.1°
Maximum altitude 13:20:20 14° 224° (SW) 3,464 14.9 23.7°
Drops below altitude 10° 13:24:20 10° 195° (SSW) 3,301 14.3 23.4°
Sets 13:28:17 0° 169° (S) 3,798 13.8 23.0°
